Miscellaneous Local Product
Issued by NWS Hastings, NE

Home | Current Version | Previous Version | Graphics & Text | Print | Product List | Glossary On
Versions: 1 2 3 4 5 6 7 8 9 10 11 12 13 14 15 16 17 18 19 20 21 22 23 24 25 26 27 28 29 30 31 32 33 34 35 36 37 38 39 40 41 42 43 44 45 46 47 48 49 50
000
AXUS43 KGID 201902
MISGRI

GID CWA HOURLY WEATHER ROUNDUP
NATIONAL WEATHER SERVICE HASTINGS NE
200 PM CDT SUN APR 20 2014

NOTE: "FAIR" INDICATES FEW OR NO CLOUDS BELOW 12,000 FEET WITH NO
SIGNIFICANT WEATHER AND/OR OBSTRUCTIONS TO VISIBILITY.

...SOUTH CENTRAL NEBRASKA...

CITY           SKY/WX    TMP DP  RH WIND       PRES   REMARKS
GRAND ISLAND   PTSUNNY   78  51  38 S18G24    29.96F
HASTINGS       CLOUDY    74  51  44 S14       29.97F
KEARNEY        CLOUDY    70  55  60 SE9       29.98S
ORD            PTSUNNY   73  49  42 SW6       29.94F
YORK           PTSUNNY   77  50  38 SW16      29.97S
AURORA         PTSUNNY   76  51  40 SW12G18   29.96F
LEXINGTON      PTSUNNY   72  52  49 CALM      29.96F
HOLDREGE       PTSUNNY   72  51  47 S12       29.97S
HEBRON         CLOUDY    78  51  38 SW9G16    29.97F

...NEBRASKA PANHANDLE...

CITY           SKY/WX    TMP DP  RH WIND       PRES   REMARKS
CHADRON        SUNNY     75  37  25 W8        29.93F
ALLIANCE       SUNNY     75  35  23 SW8       29.95F
SCOTTSBLUFF    SUNNY     76  33  21 W9        29.97F
SIDNEY         MOSUNNY   72  36  26 MISG      30.01F

...WESTERN AND NORTH CENTRAL NEBRASKA...

CITY           SKY/WX    TMP DP  RH WIND       PRES   REMARKS
VALENTINE      SUNNY     76  41  28 S14       29.93F
AINSWORTH      SUNNY     75  42  30 SE9G17    29.95F
ONEILL         MOSUNNY   75  42  31 SE6       29.95F
BROKEN BOW     PTSUNNY   69  50  50 S7        29.97S
IMPERIAL       PTSUNNY   70  49  47 N6        29.99F
NORTH PLATTE   LGT RAIN  66  52  60 CALM      29.97F
MCCOOK         MOSUNNY   75  53  46 SE8       29.96F

...EASTERN NEBRASKA...

CITY           SKY/WX    TMP DP  RH WIND       PRES   REMARKS
NORFOLK        MOSUNNY   78  52  40 VRB3      29.92F
SO SIOUX CITY  PTSUNNY   78  54  43 VRB7      29.93F
TEKAMAH        MOSUNNY   85  51  31 S18       29.92F
COLUMBUS       MOSUNNY   81  54  39 SW10      29.95F
ALBION         MOSUNNY   76  47  36 CALM      29.94F
OMAHA EPPLEY   CLOUDY    79  51  37 S7        29.95F
OFFUTT AFB     CLOUDY    80  53  38 SW13      29.95F
MILLARD        MOSUNNY   78  52  40 CALM      29.96F
LINCOLN        PTSUNNY   83  52  34 SW17G23   29.96F
NEBRASKA CITY  PTSUNNY   82  50  32 SW14G20   29.98F
BEATRICE       PTSUNNY   81  52  36 SW13G18   29.97F
FALLS CITY     PTSUNNY   82  55  39 SW15G21   29.98F

...NORTHERN KANSAS...

CITY           SKY/WX    TMP DP  RH WIND       PRES   REMARKS
GOODLAND       PTSUNNY   66  51  58 CALM      29.99F
HILL CITY      CLOUDY    77  51  40 S13       29.96F
PHILLIPSBURG   MOSUNNY   79  46  31 S14       29.96F
SMITH CENTER   PTSUNNY   73  52  46 SW7       29.97F
BELOIT         CLOUDY    70  54  56 S16G29    29.98R
HAYS           CLOUDY    72  55  56 S15       29.98F
RUSSELL        CLOUDY    74  54  49 S13       29.98F
CONCORDIA      PTSUNNY   76  52  43 SW15G25   29.98F
SALINA         CLOUDY    70  55  59 S15G22    30.02F
TOPEKA         PTSUNNY   77  53  43 S16       30.03F



USA.gov is the U.S. government's official web portal to all federal, state and local government web resources and services.